Location: Putah Creek Observatory
(38.7021°N, 122.3865°W)
Time: 10:22:37
(UTC-08:00)

Daily predictions for brighter satellites

Satellite Brightness Start Highest point End
(mag) Time Altitude Azimuth Time Altitude Azimuth Time Altitude Azimuth
Meteor 1-5 Rocket 4.2 17:09:52 10° N 17:15:13 57° E 17:20:41 10° SSE
Thor Agena Rocket 3.8 17:10:22 10° NNE 17:15:28 53° E 17:20:35 10° S
Cosmos 1269 Rocket 4.3 17:10:12 10° NNW 17:15:31 79° WSW 17:20:48 10° SSE
ATLAS 2AS CENTAUR R/B 3.3 17:09:19 10° NNW 17:17:04 46° NE 17:24:19 10° ESE
Cosmos 2082 Rocket 3.9 17:21:29 10° NNE 17:23:55 13° NE 17:26:21 10° ENE
YAOGAN 1 2.8 17:20:03 10° SSE 17:24:12 48° ENE 17:28:23 10° N
AQUARIUS 4.3 17:20:28 10° SSE 17:24:50 55° ENE 17:29:15 10° N
Cosmos 2251 Rocket 4.0 17:22:14 10° N 17:27:16 39° ENE 17:32:14 10° SE
Cosmos 1833 Rocket 4.4 17:25:39 10° NNE 17:27:29 11° NE 17:29:19 10° ENE
SL-27 R/B 3.0 17:24:45 10° N 17:28:14 39° ENE 17:31:39 10° SE
Cosmos 1633 4.5 17:29:04 10° NNW 17:32:21 33° W 17:35:35 10° SSW
Hubble Space Telescope 3.8 17:36:13 10° SSW 17:37:17 11° SSW 17:38:21 10° S
CZ-2C R/B 2.4 17:32:23 10° SSE 17:37:19 77° ENE 17:42:25 10° N
Cosmos 1238 Rocket 2.4 17:34:31 10° SSE 17:37:22 44° E 17:40:13 10° NNE
Cosmos 158 Rocket 4.3 17:35:30 10° NNW 17:40:51 75° WSW 17:46:04 10° S
Okean 1 3.9 17:38:19 10° SSE 17:42:01 36° E 17:45:45 10° NNE
SMAP 3.0 17:38:24 10° SSE 17:43:03 87° ENE 17:47:43 10° NNW
FALCON 9 R/B 4.5 17:10:25 10° WSW 17:43:33 62° S 17:51:03 12° E
Cosmos 1536 4.3 17:40:24 10° NNW 17:44:15 41° W 17:48:05 10° SSW
OTV 4 2.0 17:41:33 10° W 17:44:19 33° SSW 17:47:04 10° SE
EP 2 4.5 17:42:17 10° SSW 17:44:50 50° ESE 17:46:29 19° NE
SL-8 Rocket 4.0 17:38:47 10° N 17:44:59 86° E 17:51:08 10° S
CRYOSAT 2 4.5 17:40:11 10° N 17:45:06 82° W 17:49:59 10° S
SKYMED 2 4.2 17:42:44 10° NNE 17:46:46 36° E 17:50:45 10° SSE
Cosmos 1455 Rocket 3.1 17:42:42 10° N 17:47:02 55° E 17:51:23 10° SSE
Meteor 2-19 Rocket 4.4 17:44:14 10° N 17:50:19 84° E 17:56:22 10° S
COSMOS 2441 4.5 17:45:57 10° SSE 17:50:40 54° ENE 17:55:27 10° N
OPS 8737 4.2 17:48:29 10° SSW 17:51:54 86° WNW 17:54:20 16° NNE
BREEZE-M DEB (TANK) 3.7 17:51:46 10° WNW 17:53:18 16° NNW 17:54:21 13° NNE
Cosmos 1812 2.6 17:49:41 10° S 17:53:31 74° E 17:57:22 10° N
Cosmos 2366 rocket 4.0 17:49:21 10° N 17:55:44 76° E 18:02:01 10° SSE
Meteor 1-18 Rocket 4.2 17:51:59 10° S 17:57:34 80° E 18:03:19 10° NNE
Cosmos 2218 Rocket 4.0 17:52:48 10° N 17:59:08 89° WSW 18:05:20 10° S
Cosmos 1346 Rocket 3.3 17:56:35 10° SSE 18:00:13 36° E 18:02:29 19° NE
BREEZE-M DEB (TANK) 4.4 17:58:03 10° WNW 18:03:40 45° SW 18:07:08 10° SSE
GEOS 3 Rocket 3.9 17:58:58 10° ESE 18:03:45 42° NE 18:08:34 10° NNW
Cosmos 1844 Rocket 3.8 18:05:52 10° SW 18:11:08 42° WNW 18:16:29 10° N
CZ-4 R/B 3.6 18:09:21 10° SSW 18:13:03 29° W 18:16:42 10° NW
Cosmos 1809 Rocket 4.5 18:07:18 10° N 18:13:22 58° E 18:19:21 10° SSE
SL-8 R/B 3.7 18:09:42 10° WSW 18:14:29 80° NNW 18:16:57 29° NE
COSMOS 2487 4.2 18:12:40 10° N 18:14:01 19° NNE 18:14:01 19° NNE
MSX 4.2 18:14:54 10° S 18:20:37 69° WSW 18:26:22 10° NNW
BREEZE-M R/B 4.3 18:14:28 10° WSW 18:25:29 73° NW 18:28:24 29° NE
Cosmos 1975 2.9 18:22:27 10° N 18:26:32 77° W 18:30:33 10° S
Cosmos 2297 3.8 18:21:15 10° S 18:26:43 54° ESE 18:29:17 30° NE
Cosmos 1821 Rocket 4.2 18:25:03 10° N 18:30:48 43° ENE 18:36:32 10° SSE
Tiangong 1 1.9 18:30:54 10° SW 18:33:17 40° S 18:33:17 40° S
IDEFIX/ARIANE 42P 4.5 18:30:11 10° SSW 18:34:45 31° W 18:39:20 10° NW
COSMO-SKYMED 1 3.0 18:30:33 10° N 18:34:50 62° WNW 18:39:07 10° SSW
ISS -0.9 18:35:10 10° WNW 18:37:11 15° NNW 18:37:22 15° NNW
Cosmos 2278 Rocket 2.9 18:36:34 10° SW 18:42:03 53° WNW 18:46:46 14° N
Meteor 2-21 4.5 18:37:47 10° N 18:44:00 82° W 18:50:08 10° S
Meteor 1-19 Rocket 4.2 18:39:40 10° S 18:45:23 71° E 18:49:03 24° NNE
Cosmos 1484 Rocket 4.2 18:44:12 10° SSW 18:47:41 36° W 18:51:11 10° NNW
Genesis I 4.2 18:44:32 10° NNW 18:47:02 37° NNW 18:47:02 37° NNW
Nadezhda 3 Rocket 4.1 18:45:01 10° SSW 18:51:11 76° W 18:57:28 10° N
NOSS 3-4 (A) 4.5 18:46:21 10° NNW 18:52:03 33° NE 18:52:03 33° NE
NOSS 3-4 (C) 4.5 18:46:28 10° NNW 18:52:07 33° NE 18:52:07 33° NE
ATLAS 2AS CENTAUR R/B 4.1 19:00:39 10° NW 19:08:01 42° WSW 19:14:53 10° S
CZ-3B DEB 3.7 19:04:04 10° W 19:08:40 38° NNW 19:12:39 27° NNE
Cosmos 2082 Rocket 2.0 19:03:12 10° NNW 19:08:54 82° ENE 19:09:08 79° ESE
Cosmos 1025 Rocket 4.3 19:04:32 10° S 19:06:52 32° S 19:06:52 32° S
NOAA 12 4.5 19:06:25 10° S 19:11:39 62° W 19:16:53 10° NNW
Cosmos 1833 Rocket 2.9 19:06:45 10° NNW 19:11:14 55° N 19:11:14 55° N
ATLAS 3B CENTAUR R/B 3.7 18:57:43 10° WSW 19:12:59 43° S 19:15:40 33° SSE
Meteor 1-23 Rocket 4.3 19:10:11 10° S 19:15:05 66° SSE 19:15:05 66° SSE
Cosmos 921 Rocket 3.9 19:11:51 10° SSW 19:15:19 47° WSW 19:15:19 47° WSW
Timation 1 Rocket 4.4 19:10:09 10° SSW 19:16:06 74° WNW 19:17:15 58° N
METEOR-M 4.4 19:11:19 10° S 19:16:36 67° WSW 19:21:57 10° NNW
Meteor 2-4 Rocket 4.1 19:27:49 10° SSW 19:32:34 56° WSW 19:32:34 56° WSW
